This is the latest recevied weather packets stored in our database for station/object KJ4YLO. If no packets are shown the sender has not sent any weather packets the latest 10 day(s).
| Time | Temp. | Humidity | Pressure | Rain* | Wind** | Luminosity | Snow |
|---|---|---|---|---|---|---|---|
| 1778097407 | 22.78° C | 73% | 1014.8 hPa | 0 mm | - | 78 W/m² | - |
| 1778097103 | 23.33° C | 72% | 1014.8 hPa | 0 mm | - | 71 W/m² | - |
| 1778096801 | 23.33° C | 70% | 1014.8 hPa | 0 mm | - | 86 W/m² | - |
| 1778096497 | 23.89° C | 69% | 1014.8 hPa | 0 mm | - | 87 W/m² | - |
| 1778096195 | 23.89° C | 67% | 1015.1 hPa | 0 mm | - | 147 W/m² | - |
| 1778095892 | 23.89° C | 70% | 1015.1 hPa | 0 mm | - | 177 W/m² | - |
| 1778095589 | 23.89° C | 68% | 1014.8 hPa | 0 mm | - | 156 W/m² | - |
| 1778095285 | 23.89° C | 66% | 1014.8 hPa | 0 mm | - | 190 W/m² | - |
| 1778094982 | 23.89° C | 68% | 1015.1 hPa | 0 mm | - | 430 W/m² | - |
| 1778094678 | 23.89° C | 69% | 1015.1 hPa | 0 mm | - | 262 W/m² | - |
| 1778094376 | 23.89° C | 68% | 1015.1 hPa | 0 mm | - | 231 W/m² | - |
| 1778094072 | 23.33° C | 69% | 1015.1 hPa | 0 mm | - | 253 W/m² | - |
| 1778093769 | 23.89° C | 71% | 1015.5 hPa | 0 mm | - | 139 W/m² | - |
| 1778093465 | 23.89° C | 66% | 1015.5 hPa | 0 mm | - | 230 W/m² | - |
| 1778093163 | 23.33° C | 69% | 1015.5 hPa | 0 mm | - | 329 W/m² | - |
| 1778092860 | 22.78° C | 70% | 1015.5 hPa | 0 mm | - | 347 W/m² | - |
| 1778092556 | 22.78° C | 72% | 1016.3 hPa | 0 mm | - | 204 W/m² | - |
| 1778092252 | 22.78° C | 70% | 1015.9 hPa | 0 mm | - | 221 W/m² | - |
| 1778091950 | 23.89° C | 69% | 1015.5 hPa | 0 mm | - | 249 W/m² | - |
| 1778091647 | 23.89° C | 69% | 1015.5 hPa | 0 mm | - | 314 W/m² | - |
| 1778091345 | 23.89° C | 68% | 1015.9 hPa | 0 mm | - | 1025 W/m² | - |
| 1778091042 | 23.33° C | 71% | 1015.9 hPa | 0 mm | - | 868 W/m² | - |
| 1778090738 | 22.22° C | 75% | 1015.9 hPa | 0 mm | - | 960 W/m² | - |
| 1778090435 | 22.22° C | 75% | 1015.5 hPa | 0 mm | - | 235 W/m² | - |
| 1778090131 | 21.67° C | 78% | 1015.9 hPa | 0 mm | - | 785 W/m² | - |
* Rain latest hour (hover to see other rain measurements)
** Current wind speed in m/s (hover to see current wind gust speed)